Location: Benque
(43.2594°N, 0.9178°E)
Time: 17:00:56
(UTC+00:00)

CZ-4 R/B - Pass Details

Date: 24 January 2020
Orbit: 581 x 588 km, 97.8° (Epoch: 27 February)

Event Time Altitude Azimuth Distance (km) Brightness Sun altitude
Rises 17:50:36 0° 154° (SSE) 2,795 7.8 -9.9°
Reaches altitude 10° 17:52:46 10° 150° (SSE) 1,898 6.9 -10.3°
Maximum altitude 17:56:47 54° 73° (ENE) 716 4.5 -11.0°
Drops below altitude 10° 18:00:49 10° 357° (N) 1,909 7.0 -11.7°
Sets 18:03:00 0° 352° (N) 2,813 7.9 -12.1°
